ELECTRON R/B (46823 NORAD) Tracking and Keplerian Element Data

This shows tracking and keplerian element data for the satellite.

Feedback or suggestion? Click here.




ElementValue
Catalog46823
NameELECTRON R/B
Epoch Orbit212
Epoch Day316.21243767
Epoch Year2020
RAAN18.1552
Inclination97.4679
Eccentricity0.0030026
Argument of Perigee184.9297
Mean Anonmoly175.1714
Mean Motion16.44755227
Decay Rate0.14071105
L11 46823U 20077L 20316.21243767 .14071105 22479-5 24293-3 0 9994
L22 46823 97.4679 18.1552 0030026 184.9297 175.1714 16.44755227 2124

Live tracking and technical data element details for ELECTRON R/B (NORAD 46823). ELECTRON R/B can be tracked NOW for your location showing map with azimuth and elevation plus other details from your city location.

Track the satellite on the map from your city or location and see movement details for azimuth, elevation, latitude, longitude, range, height, and movement on the map or in text.







IsCatalogInMostPopularTable: catalog: 46823, numindb: 13
Update: records affected: 1



GetName: 46823 ELECTRON R/B

Hit Count: updated at: Sat, 05 Dec 2020 06:00:05 GMT